Terug naar catalogus

IRIDIUM 33 DEB

ActiefPO
NORAD 34071·DEBRIS·🇺🇸 United States

Gelanceerd Sep 14, 1997 vanaf Baikonur Cosmodrome

Loading…

Volgende Passages (komende 24 uur)

TLE

VersSource: Space-Track

Epoch: Sep 14, 2026, 09:30 UTC

1 34071U 97051CE  26257.39628363  .00001318  00000-0  33110-3 0  9993
2 34071  86.3390 257.8708 0004894 267.5818  92.4826 14.50598956923293

Volg IRIDIUM 33 DEB in realtime met AllMySat

Download on the App Store